Tracking 19286 objects as of 18-Nov-2018
HD Live streaming from Space Station
objects crossing your sky now

MOLNIYA 2-9

Track MOLNIYA 2-9 now!
MOLNIYA 2-9 is classified as:


NORAD ID: 7276
Int'l Code: 1974-026A
Perigee: 966.7 km
Apogee: 32,765.2 km
Inclination: 63.2 °
Period: 587.5 minutes
Semi major axis: 23236 km
RCS: 14.5607 m2 (large)
Launch date: April 26, 1974
Source: Commonwealth of Independent States (former USSR) (CIS)
Launch site: PLESETSK MISSILE AND SPACE COMPLEX (PKMTR)
aabbcc
Your satellite tracking list
Your tracking list is empty




NASA's NSSDC Master Catalog

Two Line Element Set (TLE):
1  7276U 74026A   18321.34060311 +.00000060 +00000-0 -58833-3 0  9991
2  7276 063.2204 080.5572 6842226 289.3250 012.1953 02.45095158217298
Source of the keplerian elements: AFSPC